When you browse on this site, cookies collect data to enhance your experience and personalize the content and advertising you see.
Visit our Privacy Policy to learn more. By continuing to use the site, you agree to this use of cookies and data.
  • In Romania
  • List of Countries
  • For 7 days
  • Water Temperature
  • Weather Map
  • Weather Widgets
  • user-avatar
    Login

    Hourly Weather Jewłach

    Today, 20 September, Friday

    Time Temperature Precipitation Wind Pressure Humidity
    00:00 +23°C° 0 mm 5 mps 762 mmHg 75%
    01:00 +22°C° 0 mm 4 mps 762 mmHg 76%
    02:00 +22°C° 0 mm 4 mps 761 mmHg 77%
    03:00 +22°C° 0 mm 3 mps 761 mmHg 79%
    04:00 +22°C° 0 mm 3 mps 761 mmHg 78%
    05:00 +22°C° 0 mm 3 mps 761 mmHg 77%
    06:00 +21°C° 0 mm 2 mps 761 mmHg 77%
    07:00 +23°C° 0 mm 2 mps 761 mmHg 72%
    08:00 +24°C° 0 mm 3 mps 761 mmHg 68%
    09:00 +25°C° 0 mm 3 mps 761 mmHg 63%
    10:00 +26°C° 0 mm 3 mps 760 mmHg 59%
    11:00 +27°C° 0 mm 3 mps 759 mmHg 54%
    12:00 +28°C° 0 mm 3 mps 759 mmHg 50%
    13:00 +29°C° 0 mm 2 mps 758 mmHg 47%
    14:00 +30°C° 0 mm 2 mps 757 mmHg 45%
    15:00 +30°C° 0 mm 2 mps 757 mmHg 42%
    16:00 +29°C° 0 mm 1 mps 756 mmHg 44%
    17:00 +28°C° 0 mm 1 mps 756 mmHg 47%
    18:00 +27°C° 0 mm 1 mps 756 mmHg 49%
    19:00 +27°C° 0 mm 1 mps 756 mmHg 52%
    20:00 +26°C° 0 mm 2 mps 756 mmHg 54%
    21:00 +25°C° 0 mm 2 mps 755 mmHg 56%
    22:00 +25°C° 0 mm 1 mps 755 mmHg 59%
    23:00 +24°C° 0 mm 1 mps 755 mmHg 62%

    Tomorrow, 21 September, Saturday

    Time Temperature Precipitation Wind Pressure Humidity
    00:00 +23°C° 0 mm 1 mps 755 mmHg 65%
    01:00 +23°C° 0 mm 1 mps 754 mmHg 68%
    02:00 +20°C° 0 mm 0 mps 754 mmHg 71%
    03:00 +20°C° 0 mm 0 mps 753 mmHg 75%
    04:00 +21°C° 0 mm 2 mps 753 mmHg 73%
    05:00 +21°C° 0 mm 3 mps 753 mmHg 70%
    06:00 +22°C° 0 mm 5 mps 753 mmHg 68%
    07:00 +24°C° 0 mm 6 mps 753 mmHg 60%
    08:00 +27°C° 0 mm 7 mps 753 mmHg 53%
    09:00 +29°C° 0 mm 8 mps 753 mmHg 45%
    10:00 +31°C° 0 mm 8 mps 753 mmHg 41%
    11:00 +32°C° 0 mm 7 mps 752 mmHg 37%
    12:00 +34°C° 0 mm 7 mps 752 mmHg 33%
    13:00 +34°C° 0 mm 9 mps 752 mmHg 31%
    14:00 +34°C° 0 mm 10 mps 752 mmHg 29%
    15:00 +34°C° 0 mm 11 mps 752 mmHg 27%
    16:00 +31°C° 0 mm 13 mps 753 mmHg 29%
    17:00 +27°C° 0 mm 14 mps 754 mmHg 31%
    18:00 +24°C° 0 mm 16 mps 755 mmHg 32%
    19:00 +23°C° 0 mm 16 mps 756 mmHg 33%
    20:00 +22°C° 0 mm 15 mps 757 mmHg 33%
    21:00 +22°C° 0 mm 15 mps 758 mmHg 33%
    22:00 +20°C° 0 mm 14 mps 759 mmHg 33%
    23:00 +20°C° 0 mm 14 mps 759 mmHg 33%

    Day after tomorrow, 22 September, Sunday

    Time Temperature Precipitation Wind Pressure Humidity
    00:00 +19°C° 0 mm 13 mps 760 mmHg 33%
    01:00 +19°C° 0 mm 12 mps 760 mmHg 33%
    02:00 +19°C° 0 mm 11 mps 761 mmHg 33%
    03:00 +19°C° 0 mm 11 mps 761 mmHg 33%
    04:00 +18°C° 0 mm 10 mps 762 mmHg 34%
    05:00 +18°C° 0 mm 9 mps 762 mmHg 36%
    06:00 +17°C° 0 mm 8 mps 763 mmHg 37%
    07:00 +18°C° 0 mm 8 mps 763 mmHg 35%
    08:00 +20°C° 0 mm 7 mps 764 mmHg 33%
    09:00 +20°C° 0 mm 6 mps 764 mmHg 31%
    10:00 +21°C° 0 mm 5 mps 764 mmHg 29%
    11:00 +22°C° 0 mm 4 mps 764 mmHg 27%
    12:00 +24°C° 0 mm 3 mps 764 mmHg 25%
    13:00 +25°C° 0 mm 3 mps 763 mmHg 24%
    14:00 +25°C° 0 mm 2 mps 763 mmHg 23%
    15:00 +26°C° 0 mm 1 mps 763 mmHg 22%
    16:00 +25°C° 0 mm 2 mps 763 mmHg 26%
    17:00 +23°C° 0 mm 2 mps 763 mmHg 29%
    18:00 +21°C° 0 mm 3 mps 763 mmHg 32%
    19:00 +20°C° 0 mm 4 mps 763 mmHg 41%
    20:00 +19°C° 0 mm 4 mps 764 mmHg 51%
    21:00 +17°C° 0 mm 5 mps 764 mmHg 60%
    22:00 +18°C° 0 mm 4 mps 764 mmHg 62%
    23:00 +17°C° 0 mm 3 mps 764 mmHg 63%

    23 September, Monday

    Time Temperature Precipitation Wind Pressure Humidity
    00:00 +17°C° 0 mm 2 mps 764 mmHg 65%
    01:00 +16°C° 0 mm 2 mps 764 mmHg 66%
    02:00 +16°C° 0 mm 1 mps 764 mmHg 67%
    03:00 +16°C° 0 mm 1 mps 763 mmHg 68%
    04:00 +15°C° 0 mm 1 mps 763 mmHg 69%
    05:00 +15°C° 0 mm 1 mps 763 mmHg 70%
    06:00 +15°C° 0 mm 1 mps 763 mmHg 71%
    07:00 +17°C° 0 mm 2 mps 763 mmHg 64%
    08:00 +19°C° 0 mm 2 mps 763 mmHg 57%
    09:00 +21°C° 0 mm 3 mps 763 mmHg 51%
    10:00 +22°C° 0 mm 3 mps 763 mmHg 45%
    11:00 +24°C° 0 mm 3 mps 762 mmHg 40%
    12:00 +26°C° 0 mm 3 mps 762 mmHg 34%
    13:00 +26°C° 0 mm 3 mps 762 mmHg 32%
    14:00 +27°C° 0 mm 2 mps 761 mmHg 31%
    15:00 +27°C° 0 mm 1 mps 761 mmHg 29%
    16:00 +26°C° 0 mm 1 mps 761 mmHg 32%
    17:00 +25°C° 0 mm 1 mps 761 mmHg 35%
    18:00 +24°C° 0 mm 1 mps 762 mmHg 38%
    19:00 +23°C° 0 mm 2 mps 762 mmHg 51%
    20:00 +21°C° 0 mm 3 mps 763 mmHg 65%
    21:00 +20°C° 0 mm 4 mps 763 mmHg 79%
    22:00 +20°C° 0.1 mm 4 mps 764 mmHg 77%
    23:00 +20°C° 0.1 mm 4 mps 764 mmHg 76%

    24 September, Tuesday

    Time Temperature Precipitation Wind Pressure Humidity
    00:00 +20°C° 0.1 mm 4 mps 764 mmHg 75%
    01:00 +20°C° 0.1 mm 3 mps 764 mmHg 74%
    02:00 +20°C° 0.1 mm 3 mps 764 mmHg 73%
    03:00 +20°C° 0.1 mm 2 mps 764 mmHg 72%
    04:00 +19°C° 0.1 mm 3 mps 764 mmHg 74%
    05:00 +19°C° 0.1 mm 3 mps 764 mmHg 76%
    06:00 +18°C° 0.1 mm 3 mps 764 mmHg 78%
    07:00 +19°C° 0.1 mm 3 mps 764 mmHg 77%
    08:00 +19°C° 0.1 mm 2 mps 764 mmHg 76%
    09:00 +19°C° 0.1 mm 2 mps 764 mmHg 75%
    10:00 +20°C° 0 mm 2 mps 763 mmHg 71%
    11:00 +20°C° 0 mm 2 mps 763 mmHg 68%
    12:00 +21°C° 0 mm 2 mps 763 mmHg 64%
    13:00 +23°C° 0 mm 2 mps 762 mmHg 60%
    14:00 +24°C° 0 mm 1 mps 761 mmHg 56%
    15:00 +25°C° 0 mm 1 mps 761 mmHg 52%
    16:00 +24°C° 0 mm 1 mps 761 mmHg 56%
    17:00 +23°C° 0 mm 2 mps 761 mmHg 60%
    18:00 +21°C° 0 mm 2 mps 760 mmHg 64%
    19:00 +22°C° 0 mm 1 mps 761 mmHg 66%
    20:00 +21°C° 0 mm 1 mps 761 mmHg 69%
    21:00 +21°C° 0 mm 1 mps 761 mmHg 72%
    22:00 +20°C° 0 mm 1 mps 761 mmHg 72%
    23:00 +20°C° 0 mm 1 mps 760 mmHg 73%

    25 September, Wednesday

    Time Temperature Precipitation Wind Pressure Humidity
    00:00 +20°C° 0 mm 1 mps 760 mmHg 73%
    01:00 +19°C° 0 mm 2 mps 759 mmHg 73%
    02:00 +19°C° 0 mm 2 mps 759 mmHg 74%
    03:00 +18°C° 0 mm 3 mps 759 mmHg 74%
    04:00 +18°C° 0 mm 3 mps 759 mmHg 74%
    05:00 +18°C° 0 mm 3 mps 759 mmHg 74%
    06:00 +18°C° 0 mm 3 mps 759 mmHg 74%
    07:00 +20°C° 0 mm 3 mps 758 mmHg 66%
    08:00 +22°C° 0 mm 4 mps 758 mmHg 57%
    09:00 +25°C° 0 mm 4 mps 758 mmHg 48%
    10:00 +27°C° 0 mm 4 mps 758 mmHg 43%
    11:00 +29°C° 0 mm 4 mps 758 mmHg 38%
    12:00 +30°C° 0 mm 3 mps 757 mmHg 33%
    13:00 +31°C° 0 mm 3 mps 757 mmHg 30%
    14:00 +33°C° 0 mm 3 mps 757 mmHg 27%
    15:00 +34°C° 0 mm 2 mps 756 mmHg 25%
    16:00 +31°C° 0 mm 2 mps 757 mmHg 27%
    17:00 +30°C° 0 mm 1 mps 757 mmHg 30%
    18:00 +28°C° 0 mm 1 mps 757 mmHg 33%
    19:00 +27°C° 0 mm 1 mps 758 mmHg 35%
    20:00 +26°C° 0 mm 2 mps 758 mmHg 37%
    21:00 +26°C° 0 mm 2 mps 759 mmHg 40%
    22:00 +24°C° 0 mm 3 mps 759 mmHg 49%
    23:00 +22°C° 0 mm 3 mps 759 mmHg 58%
    Show more